Weather History for Cook, MN

Change the Weather History Date:

Friday, November 1, 2013

  Actual Average Record
Temperature  
Mean Temperature 35 °F -  
Max Temperature 37 °F 40 °F 60 °F (2000)
Min Temperature 33 °F 26 °F 12 °F (1996)
Degree Days  
Heating Degree Days 30    
Moisture  
Dew Point 34 °F    
Average Humidity 91    
Maximum Humidity 100    
Minimum Humidity 75    
Precipitation  
Precipitation 0.00 in - - ()
Sea Level Pressure  
Sea Level Pressure 29.57 in    
Wind  
Wind Speed 4 mph (WNW)    
Max Wind Speed 8 mph    
Max Gust Speed -    
Visibility 8 miles    
Events      
Averages and records for this station are not official NWS values.
T = Trace of Precipitation, MM = Missing Value Source: NWS Daily Summary

Daily Weather History Graph

Daily Weather History Graph

Search for Another Location

Airport:

Trip Planner

Search our weather history database for the weather conditions in past years. The results will help you decide how hot, cold, wet, or windy it might be!

Date:

Astronomy

Nov. 01, 2013 Rise Set
Actual Time 7:55 AM CDT 5:52 PM CDT
Civil Twilight 7:23 AM CDT 6:24 PM CDT
Nautical Twilight 6:46 AM CDT 7:01 PM CDT
Astronomical Twilight 6:10 AM CDT 7:37 PM CDT
Moon 5:40 AM CDT (11/1) 4:51 PM CDT (11/1)
Length of Visible Light 11h 01m
Length of Day
9h 56m
Waning Crescent, 4% of the Moon is Illuminated
Nov 1
Waning Crescent
Nov 3
New
Nov 9
First Quarter
Nov 17
Full
Nov 25
Last Quarter

Hourly Weather History & Observations

Time (CDT) Temp. Windchill Dew Point Humidity Pressure Visibility Wind Dir Wind Speed Gust Speed Precip Events Conditions
12:16 AM 37.4 °F 34.9 °F 37.4 °F 100% 29.37 in 5.0 mi West 3.5 mph - N/A   Overcast
12:37 AM 37.4 °F 33.8 °F 37.4 °F 100% 29.37 in 5.0 mi West 4.6 mph - N/A   Overcast
12:56 AM 37.4 °F 34.9 °F 37.4 °F 100% 29.37 in 5.0 mi WNW 3.5 mph - N/A   Overcast
1:16 AM 37.4 °F 34.9 °F 37.4 °F 100% 29.37 in 4.0 mi West 3.5 mph - N/A   Drizzle
1:37 AM 37.4 °F 34.9 °F 37.4 °F 100% 29.37 in 4.0 mi West 3.5 mph - N/A   Drizzle
1:56 AM 37.4 °F 32.8 °F 37.4 °F 100% 29.37 in 4.0 mi West 5.8 mph - N/A   Light Drizzle
2:16 AM 37.4 °F 32.8 °F 35.6 °F 93% 29.37 in 4.0 mi West 5.8 mph - N/A   Overcast
2:37 AM 37.4 °F 34.9 °F 35.6 °F 93% 29.37 in 5.0 mi WNW 3.5 mph - N/A   Overcast
2:56 AM 37.4 °F - 35.6 °F 93% 29.38 in 5.0 mi Calm Calm - N/A   Overcast
3:17 AM 37.4 °F - 35.6 °F 93% 29.38 in 5.0 mi Calm Calm - N/A   Overcast
3:37 AM 37.4 °F 34.9 °F 35.6 °F 93% 29.39 in 4.0 mi West 3.5 mph - N/A   Overcast
3:56 AM 35.6 °F 30.7 °F 35.6 °F 100% 29.39 in 4.0 mi West 5.8 mph - N/A   Overcast
4:17 AM 35.6 °F 30.7 °F 35.6 °F 100% 29.39 in 4.0 mi WNW 5.8 mph - N/A   Overcast
4:36 AM 35.6 °F 30.7 °F 35.6 °F 100% 29.40 in 5.0 mi West 5.8 mph - N/A   Overcast
4:57 AM 35.6 °F 31.7 °F 35.6 °F 100% 29.40 in 5.0 mi West 4.6 mph - N/A   Overcast
5:17 AM 35.6 °F 32.8 °F 35.6 °F 100% 29.41 in 5.0 mi West 3.5 mph - N/A   Overcast
5:36 AM 35.6 °F 31.7 °F 35.6 °F 100% 29.41 in 5.0 mi West 4.6 mph - N/A   Overcast
5:57 AM 35.6 °F 31.7 °F 35.6 °F 100% 29.41 in 5.0 mi West 4.6 mph - N/A   Overcast
6:17 AM 35.6 °F 30.7 °F 35.6 °F 100% 29.42 in 5.0 mi West 5.8 mph - N/A   Overcast
6:36 AM 35.6 °F 29.9 °F 35.6 °F 100% 29.43 in 5.0 mi West 6.9 mph - N/A   Overcast
6:57 AM 35.6 °F 29.9 °F 35.6 °F 100% 29.43 in 5.0 mi West 6.9 mph - N/A   Overcast
7:16 AM 35.6 °F 30.7 °F 35.6 °F 100% 29.44 in 5.0 mi WNW 5.8 mph - N/A   Overcast
7:36 AM 35.6 °F 29.2 °F 35.6 °F 100% 29.45 in 5.0 mi WNW 8.1 mph - N/A   Overcast
7:57 AM 37.4 °F 32.8 °F 35.6 °F 93% 29.46 in 7.0 mi WNW 5.8 mph - N/A   Overcast
8:16 AM 35.6 °F 30.7 °F 35.6 °F 100% 29.47 in 7.0 mi WNW 5.8 mph - N/A   Overcast
8:36 AM 35.6 °F 30.7 °F 35.6 °F 100% 29.48 in 7.0 mi NW 5.8 mph - N/A   Overcast
8:57 AM 35.6 °F 30.7 °F 33.8 °F 93% 29.49 in 10.0 mi WNW 5.8 mph - N/A   Overcast
9:16 AM 35.6 °F 29.9 °F 33.8 °F 93% 29.50 in 10.0 mi WNW 6.9 mph - N/A   Overcast
9:36 AM 35.6 °F 29.9 °F 33.8 °F 93% 29.51 in 10.0 mi NW 6.9 mph - N/A   Overcast
9:57 AM 35.6 °F 31.7 °F 33.8 °F 93% 29.51 in 10.0 mi NW 4.6 mph - N/A   Overcast
10:16 AM 35.6 °F 29.9 °F 33.8 °F 93% 29.52 in 10.0 mi NW 6.9 mph - N/A   Overcast
10:36 AM 35.6 °F 32.8 °F 33.8 °F 93% 29.52 in 10.0 mi NNW 3.5 mph - N/A   Overcast
10:56 AM 35.6 °F 32.8 °F 33.8 °F 93% 29.53 in 10.0 mi NNW 3.5 mph - N/A   Overcast
11:16 AM 35.6 °F 30.7 °F 33.8 °F 93% 29.54 in 10.0 mi NNW 5.8 mph - N/A   Overcast
11:37 AM 35.6 °F 31.7 °F 33.8 °F 93% 29.55 in 10.0 mi NNW 4.6 mph - N/A   Overcast
11:56 AM 37.4 °F 34.9 °F 33.8 °F 87% 29.56 in 10.0 mi NW 3.5 mph - N/A   Overcast
12:16 PM 37.4 °F 34.9 °F 33.8 °F 87% 29.56 in 10.0 mi NW 3.5 mph - N/A   Overcast
12:37 PM 37.4 °F 33.8 °F 33.8 °F 87% 29.57 in 10.0 mi NNW 4.6 mph - N/A   Overcast
12:56 PM 37.4 °F 34.9 °F 33.8 °F 87% 29.58 in 10.0 mi NW 3.5 mph - N/A   Overcast
1:16 PM 37.4 °F 33.8 °F 33.8 °F 87% 29.58 in 10.0 mi NW 4.6 mph - N/A   Overcast
1:37 PM 37.4 °F 34.9 °F 33.8 °F 87% 29.59 in 10.0 mi NW 3.5 mph - N/A   Overcast
1:56 PM 37.4 °F 34.9 °F 33.8 °F 87% 29.60 in 10.0 mi NW 3.5 mph - N/A   Overcast
2:16 PM 37.4 °F - 33.8 °F 87% 29.60 in 10.0 mi Calm Calm - N/A   Overcast
2:36 PM 37.4 °F 32.8 °F 33.8 °F 87% 29.62 in 10.0 mi NW 5.8 mph - N/A   Overcast
2:57 PM 37.4 °F 32.8 °F 33.8 °F 87% 29.63 in 10.0 mi NW 5.8 mph - N/A   Overcast
3:16 PM 37.4 °F 33.8 °F 32.0 °F 81% 29.63 in 10.0 mi NW 4.6 mph - N/A   Light Drizzle
3:37 PM 37.4 °F 32.8 °F 32.0 °F 81% 29.64 in 10.0 mi NNW 5.8 mph - N/A   Light Drizzle
3:57 PM 37.4 °F - 32.0 °F 81% 29.65 in 10.0 mi Calm Calm - N/A   Overcast
4:16 PM 37.4 °F 34.9 °F 32.0 °F 81% 29.66 in 10.0 mi NW 3.5 mph - N/A   Overcast
4:36 PM 37.4 °F 34.9 °F 32.0 °F 81% 29.67 in 10.0 mi NW 3.5 mph - N/A   Overcast
4:57 PM 37.4 °F - 32.0 °F 81% 29.68 in 10.0 mi Calm Calm - N/A   Overcast
5:16 PM 37.4 °F - 30.2 °F 75% 29.69 in 10.0 mi Calm Calm - N/A   Overcast
5:36 PM 37.4 °F - 30.2 °F 75% 29.69 in 10.0 mi Calm Calm - N/A   Overcast
5:57 PM 37.4 °F - 30.2 °F 75% 29.70 in 10.0 mi Calm Calm - N/A   Overcast
6:16 PM 37.4 °F - 30.2 °F 75% 29.71 in 10.0 mi Calm Calm - N/A   Overcast
6:36 PM 37.4 °F - 30.2 °F 75% 29.71 in 10.0 mi Calm Calm - N/A   Overcast
6:57 PM 37.4 °F - 32.0 °F 81% 29.72 in 10.0 mi Calm Calm - N/A   Overcast
7:16 PM 35.6 °F - 32.0 °F 87% 29.73 in 10.0 mi Calm Calm - N/A   Overcast
7:36 PM 35.6 °F - 32.0 °F 87% 29.74 in 10.0 mi Calm Calm - N/A   Overcast
7:57 PM 35.6 °F - 33.8 °F 93% 29.74 in 10.0 mi Calm Calm - N/A   Overcast
8:16 PM 35.6 °F - 32.0 °F 87% 29.75 in 10.0 mi Calm Calm - N/A   Overcast
8:36 PM 33.8 °F - 32.0 °F 93% 29.75 in 10.0 mi Calm Calm - N/A   Overcast
8:57 PM 33.8 °F - 32.0 °F 93% 29.75 in 10.0 mi Calm Calm - N/A   Overcast
9:16 PM 33.8 °F - 32.0 °F 93% 29.76 in 10.0 mi Calm Calm - N/A   Overcast
9:36 PM 33.8 °F - 33.8 °F 100% 29.76 in 10.0 mi Calm Calm - N/A   Overcast
9:57 PM 33.8 °F - 33.8 °F 100% 29.77 in 10.0 mi Calm Calm - N/A   Overcast
10:16 PM 35.6 °F - 32.0 °F 87% 29.78 in 10.0 mi Calm Calm - N/A   Overcast
10:36 PM 35.6 °F - 32.0 °F 87% 29.78 in 10.0 mi Calm Calm - N/A   Overcast
10:57 PM 35.6 °F - 32.0 °F 87% 29.79 in 10.0 mi Calm Calm - N/A   Overcast
11:16 PM 35.6 °F 31.7 °F 33.8 °F 93% 29.79 in 10.0 mi WNW 4.6 mph - N/A   Overcast
11:36 PM 35.6 °F 31.7 °F 32.0 °F 87% 29.80 in 10.0 mi NW 4.6 mph - N/A   Overcast
11:57 PM 35.6 °F - 32.0 °F 87% 29.81 in 10.0 mi Calm Calm - N/A   Overcast